Flag for Poland Weather past 2 weeks in Toruń, Poland

Now
68 °F

Partly sunny.


Feels Like: 68 °F
Forecast: 67 / 89 °F
Wind: 2 mph from East

Location: Torun

Current Time: Jul 29, 2014 at 7:15:34 AM

Latest Report: Jul 29, 2014 at 6:00 AM


Visibility: 8 mi

Pressure: 29.84 "Hg

Humidity: 80%

Dew point: 61 °F

Location of ToruńLocation

Historic Weather in Toruń — Graph

°F

Toruń temperature yesterday

Maximum temperature yesterday: 90 °F (at 4:00 PM)
Minimum temperature yesterday: 66 °F (at 5:00 AM)
Average temperature yesterday: 79 °F

Past Weeks' High & Low Weather Summary

 TemperatureHumidityPressure
High90 °F (Jul 28, 4:00 PM)96% (Jul 16, 4:00 AM)30.18 "Hg (Jul 16, 4:00 AM)
Low58 °F (Jul 15, 5:00 AM)27% (Jul 21, 4:00 PM)29.82 "Hg (Jul 14, 6:00 AM)
Average73 °F61%30.01 "Hg
* Reported Jul 14 6:00 AM — Jul 29 6:00 AM, Toruń, Weather by CustomWeather, © 2014

Note: Actual official high and low records may vary slightly from our data, if they occured in-between our weather recording intervals... More about our weather records

Advertising

Toruń weather history for previous 24 hours

 ConditionsComfort  
Time TempWeatherWind HumidityBarometerVisibility
6:00 AM
Jul 29
68 °FPartly sunny.2 mph80%29.84 "Hg8 mi
5:00 AM67 °FPartly sunny.1 mph81%29.84 "Hg10 mi
4:00 AM68 °FPassing clouds.2 mph78%29.84 "Hg12 mi
3:00 AM70 °FPassing clouds.2 mph74%29.84 "Hg0 mi
2:00 AM70 °FPassing clouds.2 mph73%29.84 "Hg11 mi
1:00 AM70 °FPassing clouds.1 mph75%29.85 "Hg14 mi
12:00 AM74 °FPassing clouds.1 mph68%29.86 "Hg16 mi
11:00 PM
Jul 28
76 °FPassing clouds.1 mph67%29.85 "Hg9 mi
10:00 PM75 °FPassing clouds.1 mph75%29.85 "Hg10 mi
9:00 PM78 °FPassing clouds.1 mph67%29.85 "Hg11 mi
8:00 PM80 °FOvercast.1 mph59%29.84 "Hg19 mi
7:00 PM83 °FThunderstorms. Overcast.3 mph53%29.83 "Hg18 mi
6:00 PM88 °FPartly sunny.2 mph34%29.83 "Hg28 mi
5:00 PM89 °FPartly sunny.3 mph33%29.83 "Hg22 mi
4:00 PM90 °FPartly sunny.3 mph31%29.84 "Hg19 mi
3:00 PM90 °FScattered clouds.3 mph36%29.85 "Hg19 mi
2:00 PM87 °FScattered clouds.5 mph41%29.87 "Hg19 mi
1:00 PM88 °FScattered clouds.3 mph39%29.88 "Hg17 mi
12:00 PM86 °FPassing clouds.3 mph44%29.90 "Hg19 mi
11:00 AM85 °FPassing clouds.3 mph48%29.90 "Hg16 mi
10:00 AM82 °FPassing clouds.3 mph59%29.91 "Hg17 mi
9:00 AM78 °FPassing clouds.2 mph68%29.91 "Hg15 mi
8:00 AM73 °FPassing clouds.2 mph77%29.93 "Hg16 mi
7:00 AM71 °FPassing clouds.3 mph80%29.92 "Hg13 mi
Weather by CustomWeather, © 2014

See weather overviewHow to use our weather pages